Home   Weather   Taunton   Past weeks

Flag for United Kingdom Past Weather in Taunton, England, United Kingdom — Yesterday and Last 2 Weeks

Now
40 °F

Duststorm.


Feels Like: 37 °F
Forecast: 35 / 48 °F
Wind: 5 mph from East

Location: Dunkeswell Aerodrome

Current Time: Dec 5, 2016 at 8:41:27 am

Latest Report: Dec 5, 2016 at 7:00 am


Visibility: 0 mi

Pressure: 30.18 "Hg

Humidity: 100%

Dew Point: 40 °F

Location of TauntonLocation

Past Weather in Taunton — Graph

°F

Taunton Temperature Yesterday

Maximum temperature yesterday: 40 °F (at 2:00 pm)
Minimum temperature yesterday: 32 °F (at 7:00 am)
Average temperature yesterday: 35 °F

High & Low Weather Summary for the Past Weeks

 TemperatureHumidityPressure
High48 °F (Nov 30, 1:00 pm)100% (Nov 21, 3:00 am)30.60 "Hg (Nov 21, 3:00 am)
Low26 °F (Nov 29, 7:00 am)58% (Nov 29, 1:00 pm)28.97 "Hg (Nov 21, 2:00 pm)
Average39 °F90%30.09 "Hg
* Reported Nov 20 7:00 am — Dec 5 7:00 am, Taunton, Weather by CustomWeather, © 2016

Note: Actual official high and low records may vary slightly from our data, if they occured in-between our weather recording intervals... More about our weather records

Advertising

Taunton Weather History for the Previous 24 Hours

Scroll right to see more
 ConditionsComfort  
Time TempWeatherWind HumidityBarometerVisibility
7:00 am
Mon, Dec 5
40 °FDuststorm.5 mph100%30.18 "Hg0 mi
6:00 am40 °FChilly.9 mph99%30.16 "Hg1 mi
5:00 am39 °FFog.8 mph97%30.16 "Hg1 mi
4:00 am41 °FFog.12 mph98%30.15 "Hg2 mi
3:00 am39 °FFog.10 mph98%30.15 "Hg1 mi
2:00 am39 °FFog.13 mph98%30.15 "Hg2 mi
1:00 am37 °FFog.12 mph97%30.16 "Hg3 mi
12:00 am34 °FSmoke.10 mph94%30.16 "Hg5 mi
11:00 pm
Sun, Dec 4
36 °FChilly.13 mph89%30.17 "Hg7 mi
10:00 pm37 °FChilly.13 mph83%30.16 "Hg11 mi
9:00 pm37 °FChilly.9 mph79%30.17 "Hg13 mi
8:00 pm38 °FChilly.7 mph78%30.17 "Hg14 mi
7:00 pm37 °FChilly.14 mph69%30.16 "Hg19 mi
6:00 pm37 °FChilly.13 mph75%30.16 "Hg17 mi
5:00 pm35 °FChilly.13 mph80%30.15 "Hg15 mi
4:00 pm36 °FChilly.13 mph77%30.14 "Hg17 mi
3:00 pm38 °FChilly.12 mph72%30.13 "Hg19 mi
2:00 pm40 °FChilly.14 mph73%30.13 "Hg19 mi
1:00 pm39 °FChilly.17 mph74%30.13 "Hg17 mi
12:00 pm38 °FChilly.18 mph76%30.14 "Hg17 mi
11:00 am36 °FChilly.21 mph79%30.16 "Hg17 mi
10:00 am35 °FChilly.18 mph82%30.18 "Hg17 mi
9:00 am33 °FChilly.17 mph87%30.18 "Hg14 mi
8:00 am32 °FChilly.17 mph89%30.18 "Hg13 mi
Weather by CustomWeather, © 2016

See weather overviewHow to use our weather pages